Probability
0 0 0 0 0 0 0 0 0 1 5 15 28 35 34 27 23 24 25 29 34 37 39 37 32 27 24 20 16 14 15 15 13 12 13 14 16 20 22 21 18 17 17 17
0 0 0 0 0 0 0 0 0 3 10 21 32 37 34 28 24 25 29 33 36 37 38 38 34 30 25 21 17 17 17 15 13 12 12 13 14 17 20 21 19 19 20 20
0 0 0 0 0 0 0 0 2 7 16 29 39 41 36 31 30 32 36 40 41 39 39 38 36 33 28 23 20 20 20 17 15 14 13 14 14 16 20 22 23 24 25 24
0 0 0 1 2 1 0 1 5 13 23 33 40 41 38 36 36 38 41 44 44 41 38 37 35 32 29 24 22 21 22 21 20 20 19 18 18 21 25 27 28 29 29 28
0 0 0 2 4 3 1 4 13 23 30 32 32 34 36 37 39 42 43 45 45 41 37 36 35 33 29 26 23 23 23 23 23 25 25 23 25 29 34 35 33 30 28 28
0 0 0 3 5 5 4 10 23 31 31 28 26 28 31 35 40 43 42 42 44 42 41 40 39 36 33 29 26 26 26 26 27 29 28 27 30 34 36 36 32 27 24 25
0 0 1 4 6 8 11 18 25 29 27 25 25 26 27 32 37 38 36 37 41 42 41 41 41 39 36 32 31 30 30 30 30 29 26 26 29 31 31 28 24 20 19 19
0 1 3 6 8 13 18 20 19 19 19 19 20 22 23 26 29 28 28 29 33 36 35 35 36 36 34 32 32 31 29 28 27 24 21 22 24 25 25 22 18 15 13 12
1 3 5 6 8 10 13 13 10 10 10 10 12 15 17 18 17 16 17 20 22 24 24 25 26 27 27 26 25 23 22 20 18 16 16 17 17 17 17 16 13 10 8 6
2 3 4 4 4 3 3 4 4 4 4 4 6 9 11 10 8 7 8 10 13 15 15 15 16 17 18 18 16 14 14 12 10 9 9 10 9 7 7 7 6 5 4 4
2 1 1 1 1 0 0 1 1 1 1 1 3 6 7 6 4 3 4 6 8 9 8 8 9 10 12 12 11 9 9 7 5 4 3 3 2 1 1 1 1 1 1 1
1 0 0 0 0 0 0 0 0 0 0 1 3 5 6 4 2 2 3 3 4 4 3 3 4 5 7 8 7 6 5 4 3 2 1 0 0 0 0 0 0 0 0 0
0 0 0 0 1 1 1 0 0 1 1 2 4 5 5 4 2 1 1 1 1 1 0 0 1 1 2 3 3 3 1 1 1 1 0 0 0 0 0 0 0 0 0 0
0 0 0 1 2 2 1 0 1 2 2 3 4 5 4 3 1 0 0 0 0 0 0 0 0 0 0 1 1 1 0 0 0 0 0 0 0 0 0 0 0 0 0 0
0 0 0 1 2 2 1 1 2 3 2 2 3 3 2 1 1 0 0 0 0 0 0 0 0 0 0 0 0 0 0 0 0 0 0 0 0 0 0 0 0 0 0 0
0 0 0 0 1 1 1 1 2 2 1 0 1 2 1 0 0 0 0 0 0 0 0 0 0 0 0 0 0 0 0 0 0 0 0 0 0 0 0 0 0 0 0 0
0 0 0 0 0 1 1 2 2 1 0 0 0 0 0 0 0 0 0 0 0 0 0 0 0 0 0 0 0 0 0 0 0 0 0 0 0 0 0 0 0 0 0 0
0 0 0 0 0 1 2 3 2 1 0 0 0 0 0 0 0 0 0 0 0 0 0 0 0 0 0 0 0 0 0 0 0 0 0 0 0 0 0 0 0 0 0 0
0 0 0 1 1 2 3 2 1 0 0 0 0 0 0 0 0 0 0 0 0 0 0 0 0 0 0 0 0 0 0 0 0 0 0 0 0 0 0 0 0 0 0 0
0 0 0 1 2 3 2 1 0 0 0 0 0 0 0 0 0 0 0 0 0 0 0 0 0 0 0 0 0 0 0 0 0 0 0 0 0 0 0 0 0 0 0 0
0 0 0 1 2 2 1 0 0 0 0 0 0 0 0 0 0 0 0 0 0 0 0 0 0 0 0 0 0 0 0 0 0 0 0 0 0 0 0 0 0 0 0 0
0 0 0 0 1 1 0 0 0 0 0 0 0 0 0 0 0 0 0 0 0 0 0 0 0 0 0 0 0 0 0 0 0 0 0 0 0 0 0 0 0 0 0 0
0 0 0 0 0 0 0 0 0 0 0 0 0 0 0 0 0 0 0 0 0 0 0 0 0 0 0 0 0 0 0 0 0 0 0 0 0 0 0 0 0 0 0 0
0 0 0 0 0 0 0 0 0 0 0 0 0 0 0 0 0 0 0 0 0 0 0 0 0 0 0 0 0 0 0 0 0 0 0 0 0 0 0 0 0 0 0 0
0 0 0 0 0 0 0 0 0 0 0 0 0 0 0 0 0 0 0 0 0 0 0 0 0 0 0 0 0 0 0 0 0 0 0 0 0 0 0 0 0 0 0 0
0 0 0 0 0 0 0 0 0 0 0 0 0 0 0 0 0 0 0 0 0 0 0 0 0 0 0 0 0 0 0 0 0 0 0 0 0 0 0 0 0 0 0 0
0 0 0 0 0 0 0 0 0 0 0 0 0 0 0 0 0 0 0 0 0 0 0 0 0 0 0 0 0 0 0 0 0 0 0 0 0 0 0 0 0 0 0 0
Wind_Speed
10 8 7 8 11 13 14 13 12 10 9 3 3 3 2 4 5 8 8 8 7 7 7 7 5 5 6 6 6 6 7 7 7 6 6 6 5 5 5 5 6 5 4 4
11 12 11 11 12 13 14 14 15 12 7 1 5 4 3 3 4 6 8 7 8 7 7 7 6 6 6 6 6 6 5 5 6 6 5 5 5 5 5 4 4 4 4 4
11 12 13 14 12 11 11 12 12 11 5 1 5 4 4 2 3 5 6 7 7 6 7 6 6 5 5 5 6 6 5 5 5 5 5 4 5 5 4 4 4 3 4 4
10 12 16 10 7 8 10 10 8 6 5 3 5 5 5 4 4 5 5 6 6 6 6 6 6 6 6 6 6 6 5 4 4 5 5 5 4 4 3 3 3 3 3 2
8 12 12 9 7 7 7 7 6 5 4 5 6 6 7 7 7 7 7 6 5 6 6 6 6 6 6 6 6 6 5 5 4 4 4 4 4 3 3 3 3 2 2 3
9 11 10 4 7 7 6 4 10 8 5 2 1 2 4 7 8 8 7 6 6 7 8 7 6 7 7 7 6 5 5 5 5 5 4 4 4 3 3 3 3 3 3 4
11 11 7 7 8 7 5 3 8 6 3 3 3 5 7 8 10 9 9 9 9 8 7 7 6 7 8 7 6 5 6 6 6 6 5 5 4 3 3 3 4 4 5 6
7 9 4 11 9 6 6 7 7 6 6 8 9 9 9 10 10 10 9 10 9 9 9 8 7 8 9 8 6 6 7 6 6 6 5 5 5 4 4 3 4 4 5 5
1 1 5 8 6 6 6 5 4 4 5 6 7 9 11 11 11 11 11 11 10 11 11 10 9 9 10 8 7 7 8 8 8 8 7 6 6 6 4 4 3 3 3 4
3 2 6 7 8 7 7 4 3 3 4 5 9 11 11 10 10 11 11 10 10 11 12 11 11 10 9 8 8 8 9 8 8 9 9 9 8 8 7 7 6 5 5 5
3 3 4 6 7 7 6 5 5 6 6 8 11 12 12 11 11 10 10 10 10 11 11 11 10 10 10 8 8 8 8 7 8 8 8 8 9 8 8 7 6 6 6 5
2 4 3 4 6 6 6 7 7 9 10 9 11 13 13 12 11 11 11 10 11 11 11 11 11 10 9 8 8 8 7 6 6 6 6 6 7 8 12 10 11 12 10 8
5 5 4 4 6 7 8 8 9 10 11 11 11 13 14 13 12 11 11 11 11 11 11 11 11 10 9 8 8 7 7 6 4 5 5 5 5 5 5 6 8 9 9 9
6 6 6 6 7 8 9 10 11 12 11 12 12 13 13 13 12 12 11 10 11 11 11 11 11 10 8 8 8 7 7 7 5 5 4 4 4 3 4 4 4 4 4 4
7 7 7 7 8 8 9 11 13 12 12 12 12 12 13 12 12 11 10 10 11 11 11 10 10 9 7 7 7 7 6 5 5 4 4 4 4 4 4 5 4 4 4 2
8 8 9 9 9 9 10 11 12 12 12 13 12 12 12 12 11 11 10 10 11 11 9 8 8 7 6 6 6 5 5 5 4 3 4 4 4 5 5 5 5 5 5 5
8 8 9 9 10 9 10 11 11 11 12 12 12 12 12 12 11 10 10 10 9 9 8 8 7 6 6 6 5 4 4 4 3 4 5 6 6 6 6 5 5 5 5 6
8 8 9 10 10 10 11 11 12 13 12 12 12 11 11 11 10 9 9 9 9 9 8 8 6 6 6 7 6 4 4 4 5 6 6 6 5 5 5 5 6 6 5 5
10 10 11 11 11 11 12 12 12 12 12 11 11 11 10 9 9 9 8 8 8 8 7 6 6 5 6 7 7 3 4 5 5 5 5 5 5 6 7 7 7 7 7 6
12 13 13 12 12 12 12 12 12 11 10 10 10 10 9 9 8 7 7 7 6 6 5 5 4 5 6 7 8 4 5 5 6 6 6 6 6 6 6 6 6 6 6 6
13 13 13 12 12 12 12 12 11 11 10 9 9 9 8 7 6 6 6 7 7 5 4 4 4 5 6 7 6 4 5 6 6 6 6 6 6 6 6 6 6 6 6 5
11 11 12 12 11 10 10 10 10 10 9 8 8 8 8 6 6 6 6 5 6 4 3 5 6 7 9 8 4 6 6 6 6 6 6 6 5 5 5 6 5 5 5 6
11 11 11 11 11 10 10 10 10 9 8 7 7 7 6 4 4 5 5 5 5 5 5 6 6 8 10 5 5 6 6 7 6 6 5 5 5 5 5 5 5 5 5 6
11 10 10 10 10 10 10 9 8 7 7 7 6 6 5 5 5 6 7 7 7 6 6 5 5 7 6 3 5 6 6 6 5 5 5 5 5 4 4 4 4 5 5 6
10 9 9 9 8 7 8 8 8 7 6 5 7 6 6 6 6 6 6 7 6 4 5 4 3 4 4 5 5 5 5 6 6 5 5 5 5 5 5 4 5 5 4 5
8 7 6 6 5 5 6 5 5 5 5 5 5 6 6 6 7 5 4 6 6 4 3 3 3 2 3 4 4 4 4 4 3 4 5 4 5 5 5 5 6 4 4 5
7 6 4 5 5 4 4 5 5 5 5 5 5 5 6 5 5 5 4 4 4 3 3 3 3 3 3 4 4 3 3 3 4 4 4 4 4 4 4 5 4 5 5 5
Wind_Direction
271 267 256 261 267 276 279 277 277 277 279 276 148 132 135 144 139 135 136 135 133 136 136 137 139 139 145 147 147 153 158 163 167 168 171 175 177 182 180 182 193 193 188 193
271 266 255 254 252 258 267 274 275 273 272 276 129 119 109 101 129 138 138 138 136 139 137 140 146 147 147 148 145 142 146 150 150 156 163 168 169 173 176 181 187 182 185 186
273 272 272 260 258 259 265 268 276 281 292 96 107 99 99 108 104 113 124 126 125 133 134 136 142 137 137 137 138 139 141 149 148 153 159 166 177 177 179 181 180 180 184 184
274 278 268 278 291 285 278 278 296 318 346 39 95 89 76 75 96 106 102 106 114 125 128 132 134 136 134 134 130 131 131 137 144 155 160 160 163 167 170 164 168 174 170 162
268 269 269 281 314 318 303 302 356 12 35 52 85 84 65 59 74 84 85 85 102 111 119 118 120 122 123 124 125 127 132 133 131 136 147 149 153 150 154 155 157 159 147 134
258 266 270 317 356 347 312 280 27 28 38 65 144 133 84 62 73 74 74 73 81 93 93 98 110 118 116 119 117 117 119 118 115 107 115 126 128 124 121 121 122 116 115 107
257 262 263 10 349 327 278 5 7 3 36 38 28 76 99 86 82 77 76 74 69 70 78 82 93 101 105 106 108 112 109 103 101 104 103 94 94 98 102 108 108 101 96 89
256 260 272 17 8 14 5 359 3 15 46 66 80 93 95 89 88 86 80 78 75 71 69 66 76 90 94 89 92 96 96 93 89 85 86 89 87 84 84 94 109 111 109 105
272 323 29 24 14 355 344 346 7 38 71 86 99 101 98 95 91 85 80 76 74 75 70 61 62 74 82 75 78 86 86 81 79 75 62 60 67 70 70 67 72 83 91 92
313 31 26 15 11 10 7 6 14 61 94 109 108 106 102 100 94 87 81 80 79 79 76 67 61 62 67 70 73 78 78 79 79 76 69 57 52 52 50 40 41 48 53 60
307 338 6 14 10 9 14 38 54 64 76 96 107 106 102 96 91 87 84 80 79 79 77 73 68 63 61 63 69 75 75 72 78 79 77 72 65 55 59 51 52 56 49 52
356 9 359 4 16 29 61 74 82 87 85 89 98 102 100 96 92 89 86 83 82 80 79 76 71 64 56 54 61 68 73 67 72 82 85 92 95 80 58 69 68 67 66 71
60 44 58 56 51 60 72 79 86 91 93 93 92 96 97 94 90 88 85 83 82 80 78 75 71 64 56 52 55 61 71 68 67 76 79 87 95 104 104 81 67 66 69 71
86 87 79 73 70 72 83 89 91 90 89 91 95 97 97 96 93 89 86 84 84 82 79 75 72 63 54 55 54 54 58 61 53 62 62 67 76 83 93 109 113 98 85 81
79 88 98 99 94 91 94 97 97 96 97 98 100 101 100 98 96 94 90 87 83 78 74 71 68 61 53 55 55 59 57 52 44 46 53 59 58 60 62 60 71 91 97 70
110 110 108 107 109 109 109 108 106 108 108 105 101 100 100 98 96 92 87 84 82 79 75 72 67 58 51 54 57 70 74 64 40 46 53 52 50 51 52 49 50 56 54 42
132 133 129 125 121 116 114 113 113 112 109 107 105 105 104 101 97 94 91 88 86 82 74 67 59 47 45 41 33 51 70 78 54 47 51 47 44 45 44 40 43 55 57 50
130 132 131 131 127 121 117 115 112 111 111 111 110 108 105 103 100 96 93 92 88 80 72 65 52 46 46 37 13 20 43 55 57 54 53 48 39 39 41 42 41 47 48 46
122 121 119 117 117 114 112 110 107 106 106 107 106 103 101 100 100 99 97 93 91 85 73 62 42 46 49 36 1 5 46 54 61 62 61 55 40 41 40 40 41 39 35 32
118 117 115 111 108 109 109 109 109 107 106 109 110 110 107 106 106 106 101 90 78 77 73 58 43 44 40 24 355 11 39 49 58 58 53 48 48 46 45 41 42 40 34 29
124 122 120 115 111 110 111 113 113 113 114 115 113 111 108 107 107 107 105 98 87 68 69 69 51 40 29 358 336 17 39 45 51 54 54 54 49 45 42 37 35 33 29 25
123 123 120 118 116 113 111 112 113 114 114 114 113 112 113 114 110 98 86 89 94 62 52 66 57 35 6 344 12 38 39 41 50 57 58 56 52 49 46 40 34 32 29 28
120 118 117 118 117 116 116 115 115 114 113 112 110 112 111 103 104 105 95 85 86 68 60 60 43 18 355 360 33 46 44 40 43 53 61 60 56 53 49 44 39 34 31 27
114 113 115 116 115 115 113 111 110 112 116 116 117 116 113 108 98 93 95 88 75 78 75 66 36 8 350 23 43 46 48 45 43 47 51 54 54 55 51 43 36 33 34 31
111 113 117 121 121 119 119 120 122 125 123 117 117 111 101 93 94 94 99 102 106 100 98 86 35 359 15 46 52 50 51 44 34 32 47 48 47 50 48 43 39 37 34 29
113 116 114 111 111 121 131 135 133 126 118 112 104 100 96 95 99 102 104 107 106 98 94 103 93 74 58 58 52 49 53 59 49 48 50 51 47 46 41 36 35 30 31 32
122 124 126 125 126 123 120 117 112 109 105 101 100 100 103 105 106 106 107 111 117 115 107 100 88 78 68 65 62 60 55 52 49 48 50 50 48 53 55 44 36 29 27 37